This is the latest recevied weather packets stored in our database for station/object DG1ABU-11. If no packets are shown the sender has not sent any weather packets the latest 10 day(s).
| Time | Temp. | Humidity | Pressure | Rain* | Wind** | Luminosity | Snow |
|---|---|---|---|---|---|---|---|
| 1777373212 | 21.11° C | 32% | 1026.4 hPa | - | - | - | - |
| 1777372312 | 20.56° C | 31% | 1026.4 hPa | - | - | - | - |
| 1777371412 | 20° C | 32% | 1026.4 hPa | - | - | - | - |
| 1777370512 | 19.44° C | 32% | 1026.4 hPa | - | - | - | - |
| 1777369611 | 18.89° C | 33% | 1026.4 hPa | - | - | - | - |
| 1777368711 | 18.33° C | 33% | 1026.3 hPa | - | - | - | - |
| 1777367811 | 17.78° C | 33% | 1026.4 hPa | - | - | - | - |
| 1777366911 | 16.67° C | 35% | 1026.4 hPa | - | - | - | - |
| 1777366011 | 16.11° C | 35% | 1026.3 hPa | - | - | - | - |
| 1777365111 | 15° C | 37% | 1026.3 hPa | - | - | - | - |
| 1777364211 | 14.44° C | 37% | 1026.2 hPa | - | - | - | - |
| 1777363311 | 13.89° C | 38% | 1026.1 hPa | - | - | - | - |
| 1777362411 | 12.78° C | 39% | 1026.1 hPa | - | - | - | - |
| 1777361511 | 12.22° C | 40% | 1026.1 hPa | - | - | - | - |
| 1777360611 | 11.11° C | 41% | 1025.9 hPa | - | - | - | - |
| 1777359711 | 10.56° C | 42% | 1025.9 hPa | - | - | - | - |
| 1777358811 | 10° C | 43% | 1025.9 hPa | - | - | - | - |
| 1777357911 | 9.44° C | 44% | 1025.9 hPa | - | - | - | - |
| 1777357010 | 8.89° C | 45% | 1025.7 hPa | - | - | - | - |
| 1777356111 | 8.89° C | 45% | 1025.8 hPa | - | - | - | - |
| 1777355210 | 8.33° C | 46% | 1025.5 hPa | - | - | - | - |
| 1777354310 | 8.33° C | 47% | 1025.4 hPa | - | - | - | - |
| 1777353410 | 7.78° C | 46% | 1025.3 hPa | - | - | - | - |
| 1777352510 | 7.78° C | 46% | 1025.1 hPa | - | - | - | - |
| 1777351610 | 7.78° C | 45% | 1025 hPa | - | - | - | - |
* Rain since midnight (hover to see other rain measurements)
** Current wind speed in m/s (hover to see current wind gust speed)